• In Germany
  • List of Countries
  • For 7 days
  • Water Temperature
  • Satellite Maps
  • Weather Map
  • Weather Widgets
  • user-avatar
    Login

    Hourly Weather Rio Branco

    Today, 20 September, Thursday

    Time Temperature Precipitation Wind Pressure Humidity
    00:00 +27°C° 0 mm 0 mps 744 mmHg 65%
    01:00 +26°C° 0 mm 0 mps 744 mmHg 67%
    02:00 +26°C° 0 mm 0 mps 744 mmHg 68%
    03:00 +26°C° 0 mm 0 mps 744 mmHg 69%
    04:00 +25°C° 0 mm 0 mps 744 mmHg 70%
    05:00 +27°C° 0 mm 0 mps 745 mmHg 66%
    06:00 +28°C° 0 mm 0 mps 745 mmHg 62%
    07:00 +29°C° 0 mm 0 mps 745 mmHg 57%
    08:00 +34°C° 0 mm 1 mps 746 mmHg 49%
    09:00 +36°C° 0 mm 1 mps 746 mmHg 41%
    10:00 +40°C° 0 mm 1 mps 746 mmHg 33%
    11:00 +40°C° 0 mm 1 mps 745 mmHg 33%
    12:00 +40°C° 0 mm 1 mps 744 mmHg 33%
    13:00 +39°C° 0 mm 1 mps 743 mmHg 33%
    14:00 +39°C° 0 mm 1 mps 743 mmHg 34%
    15:00 +39°C° 0 mm 1 mps 743 mmHg 36%
    16:00 +37°C° 0 mm 1 mps 742 mmHg 38%
    17:00 +35°C° 0 mm 1 mps 743 mmHg 42%
    18:00 +34°C° 0 mm 1 mps 743 mmHg 46%
    19:00 +32°C° 0 mm 1 mps 743 mmHg 50%
    20:00 +32°C° 0 mm 1 mps 744 mmHg 53%
    21:00 +31°C° 0 mm 1 mps 744 mmHg 56%
    22:00 +30°C° 0 mm 1 mps 745 mmHg 59%
    23:00 +30°C° 0 mm 1 mps 744 mmHg 61%

    Tomorrow, 21 September, Friday

    Time Temperature Precipitation Wind Pressure Humidity
    00:00 +29°C° 0 mm 1 mps 744 mmHg 63%
    01:00 +29°C° 0 mm 1 mps 744 mmHg 65%
    02:00 +28°C° 0 mm 1 mps 744 mmHg 66%
    03:00 +28°C° 0 mm 1 mps 743 mmHg 67%
    04:00 +28°C° 0 mm 1 mps 743 mmHg 69%
    05:00 +29°C° 0 mm 1 mps 744 mmHg 65%
    06:00 +30°C° 0 mm 1 mps 744 mmHg 62%
    07:00 +31°C° 0 mm 1 mps 745 mmHg 59%
    08:00 +34°C° 0 mm 1 mps 745 mmHg 50%
    09:00 +36°C° 0 mm 1 mps 745 mmHg 41%
    10:00 +40°C° 0 mm 1 mps 746 mmHg 32%
    11:00 +40°C° 0 mm 1 mps 745 mmHg 31%
    12:00 +40°C° 0 mm 1 mps 744 mmHg 31%
    13:00 +40°C° 0 mm 1 mps 743 mmHg 30%
    14:00 +39°C° 0 mm 1 mps 742 mmHg 32%
    15:00 +35°C° 0 mm 0 mps 742 mmHg 34%
    16:00 +35°C° 0 mm 0 mps 741 mmHg 35%
    17:00 +33°C° 0 mm 0 mps 742 mmHg 38%
    18:00 +32°C° 0 mm 0 mps 742 mmHg 41%
    19:00 +31°C° 0 mm 0 mps 743 mmHg 44%
    20:00 +30°C° 0 mm 0 mps 743 mmHg 46%
    21:00 +31°C° 0 mm 1 mps 744 mmHg 49%
    22:00 +30°C° 0 mm 1 mps 744 mmHg 52%
    23:00 +29°C° 0.5 mm 1 mps 744 mmHg 61%

    Day after tomorrow, 22 September, Saturday

    Time Temperature Precipitation Wind Pressure Humidity
    00:00 +28°C° 0.5 mm 1 mps 744 mmHg 70%
    01:00 +26°C° 0.5 mm 1 mps 743 mmHg 80%
    02:00 +26°C° 0 mm 1 mps 743 mmHg 81%
    03:00 +26°C° 0 mm 1 mps 743 mmHg 82%
    04:00 +26°C° 0 mm 1 mps 743 mmHg 84%
    05:00 +27°C° 0 mm 1 mps 744 mmHg 79%
    06:00 +28°C° 0 mm 1 mps 744 mmHg 74%
    07:00 +29°C° 0 mm 1 mps 745 mmHg 70%
    08:00 +33°C° 0 mm 1 mps 745 mmHg 58%
    09:00 +36°C° 0 mm 1 mps 745 mmHg 46%
    10:00 +40°C° 0 mm 1 mps 746 mmHg 35%
    11:00 +39°C° 0 mm 1 mps 745 mmHg 35%
    12:00 +39°C° 0 mm 1 mps 743 mmHg 36%
    13:00 +35°C° 0 mm 0 mps 742 mmHg 37%
    14:00 +37°C° 0 mm 1 mps 742 mmHg 37%
    15:00 +37°C° 0 mm 1 mps 741 mmHg 37%
    16:00 +37°C° 0 mm 1 mps 741 mmHg 37%
    17:00 +35°C° 0.1 mm 1 mps 741 mmHg 45%
    18:00 +33°C° 0.1 mm 1 mps 742 mmHg 54%
    19:00 +31°C° 0.1 mm 2 mps 742 mmHg 62%
    20:00 +30°C° 0.3 mm 2 mps 743 mmHg 68%
    21:00 +29°C° 0.3 mm 1 mps 743 mmHg 73%
    22:00 +28°C° 0.3 mm 1 mps 744 mmHg 79%
    23:00 +28°C° 0 mm 1 mps 743 mmHg 81%

    23 September, Sunday

    Time Temperature Precipitation Wind Pressure Humidity
    00:00 +27°C° 0 mm 1 mps 743 mmHg 82%
    01:00 +27°C° 0 mm 1 mps 742 mmHg 84%
    02:00 +27°C° 0 mm 1 mps 742 mmHg 84%
    03:00 +27°C° 0 mm 1 mps 742 mmHg 84%
    04:00 +26°C° 0 mm 1 mps 743 mmHg 85%
    05:00 +28°C° 0 mm 1 mps 743 mmHg 79%
    06:00 +29°C° 0 mm 1 mps 744 mmHg 74%
    07:00 +30°C° 0 mm 1 mps 745 mmHg 69%
    08:00 +32°C° 0 mm 1 mps 745 mmHg 59%
    09:00 +35°C° 0 mm 1 mps 745 mmHg 49%
    10:00 +37°C° 0 mm 1 mps 745 mmHg 39%
    11:00 +39°C° 0 mm 1 mps 744 mmHg 37%
    12:00 +39°C° 0 mm 1 mps 743 mmHg 35%
    13:00 +40°C° 0 mm 1 mps 742 mmHg 33%
    14:00 +39°C° 0 mm 1 mps 742 mmHg 35%
    15:00 +37°C° 0 mm 1 mps 742 mmHg 36%
    16:00 +37°C° 0 mm 1 mps 741 mmHg 37%
    17:00 +35°C° 0 mm 1 mps 741 mmHg 43%
    18:00 +31°C° 0 mm 0 mps 742 mmHg 48%
    19:00 +29°C° 0 mm 0 mps 742 mmHg 54%
    20:00 +28°C° 0 mm 0 mps 742 mmHg 55%
    21:00 +28°C° 0 mm 0 mps 743 mmHg 56%
    22:00 +27°C° 0 mm 0 mps 743 mmHg 57%
    23:00 +27°C° 0 mm 0 mps 743 mmHg 58%

    24 September, Monday

    Time Temperature Precipitation Wind Pressure Humidity
    00:00 +26°C° 0 mm 0 mps 742 mmHg 59%
    01:00 +26°C° 0 mm 0 mps 742 mmHg 60%
    02:00 +26°C° 0 mm 0 mps 742 mmHg 61%
    03:00 +25°C° 0 mm 0 mps 742 mmHg 62%
    04:00 +25°C° 0 mm 0 mps 742 mmHg 63%
    05:00 +26°C° 0 mm 0 mps 743 mmHg 60%
    06:00 +28°C° 0 mm 0 mps 744 mmHg 57%
    07:00 +29°C° 0 mm 0 mps 745 mmHg 53%
    08:00 +34°C° 0 mm 1 mps 745 mmHg 46%
    09:00 +37°C° 0 mm 1 mps 745 mmHg 38%
    10:00 +41°C° 0 mm 1 mps 746 mmHg 30%
    11:00 +41°C° 0 mm 1 mps 745 mmHg 30%
    12:00 +40°C° 0 mm 1 mps 744 mmHg 30%
    13:00 +40°C° 0 mm 1 mps 743 mmHg 30%
    14:00 +39°C° 0 mm 1 mps 742 mmHg 32%
    15:00 +39°C° 0 mm 1 mps 742 mmHg 33%
    16:00 +37°C° 0 mm 1 mps 741 mmHg 35%
    17:00 +36°C° 0 mm 1 mps 742 mmHg 39%
    18:00 +34°C° 0 mm 1 mps 742 mmHg 44%
    19:00 +32°C° 0 mm 1 mps 743 mmHg 48%
    20:00 +32°C° 0 mm 1 mps 743 mmHg 50%
    21:00 +29°C° 0 mm 0 mps 743 mmHg 52%
    22:00 +28°C° 0 mm 0 mps 743 mmHg 55%
    23:00 +30°C° 0.1 mm 1 mps 743 mmHg 57%

    25 September, Tuesday

    Time Temperature Precipitation Wind Pressure Humidity
    00:00 +29°C° 0.1 mm 1 mps 743 mmHg 59%
    01:00 +29°C° 0.1 mm 1 mps 743 mmHg 61%
    02:00 +28°C° 0.1 mm 1 mps 743 mmHg 67%
    03:00 +27°C° 0.1 mm 1 mps 743 mmHg 73%
    04:00 +26°C° 0.1 mm 1 mps 743 mmHg 78%
    05:00 +27°C° 0.2 mm 1 mps 744 mmHg 78%
    06:00 +28°C° 0.2 mm 1 mps 745 mmHg 78%
    07:00 +28°C° 0.2 mm 1 mps 745 mmHg 77%
    08:00 +31°C° 0 mm 1 mps 746 mmHg 67%
    09:00 +35°C° 0 mm 2 mps 746 mmHg 56%
    10:00 +37°C° 0 mm 2 mps 746 mmHg 45%
    11:00 +37°C° 0 mm 2 mps 745 mmHg 45%
    12:00 +37°C° 0 mm 2 mps 744 mmHg 44%
    13:00 +37°C° 0 mm 2 mps 743 mmHg 43%
    14:00 +37°C° 0 mm 2 mps 742 mmHg 42%
    15:00 +37°C° 0 mm 1 mps 742 mmHg 40%
    16:00 +37°C° 0 mm 1 mps 741 mmHg 39%
    17:00 +35°C° 0 mm 1 mps 741 mmHg 45%
    18:00 +33°C° 0 mm 1 mps 742 mmHg 51%
    19:00 +31°C° 0 mm 1 mps 742 mmHg 56%
    20:00 +30°C° 0 mm 1 mps 742 mmHg 58%
    21:00 +29°C° 0 mm 1 mps 743 mmHg 60%
    22:00 +29°C° 0 mm 1 mps 743 mmHg 62%
    23:00 +28°C° 0 mm 1 mps 743 mmHg 65%
    Show more